Regional Weather Roundup
Issued by NWS State College, PA

Home | Current Version | Previous Version | Graphics & Text | Print | Product List | Glossary Off
Versions: 1 2 3 4 5 6 7 8 9 10 11 12 13 14 15 16 17 18 19 20 21 22 23 24 25 26 27 28 29 30 31 32 33 34 35 36 37 38 39 40 41 42 43 44 45 46 47 48 49 50

955
ASUS41 KCTP 292310
RWRCTP

REGIONAL WEATHER ROUNDUP
NATIONAL WEATHER SERVICE STATE COLLEGE PA
700 PM EDT SAT APR 29 2017

Note: "fair" indicates few or no clouds below 12,000 feet with no
significant weather and/or obstructions to visibility.

* = STATION THAT DOES NOT REPORT PRECIPITATION /E.G. RAIN...SNOW...ETC/
    THUNDER OR FOG.

PAZ002>004-007>009-013>016-020>023-029>032-300000-
WESTERN PENNSYLVANIA

CITY           SKY/WX    TMP DP  RH WIND       PRES   REMARKS
ERIE           CLOUDY    50  43  77 NW5       30.20R
MEADVILLE      CLOUDY    51  50  96 N6        30.17R FOG
FRANKLIN*      CLOUDY    55  48  76 N7        30.17R
NEW CASTLE     CLOUDY    58  55  90 N10       30.14R
BEAVER COUNTY  NOT AVBL
BUTLER*        MOSUNNY   63  57  82 N6        30.12S
PITTSBURGH INT PTSUNNY   67  62  84 N12       30.10R
PITTSBURGH     SUNNY     75  59  57 VRB5      30.08S
INDIANA*       PTSUNNY   72  63  73 NW6       30.13R
LATROBE        SUNNY     75  64  69 VRB3      30.10R
WASHINGTON CO* MOSUNNY   73  63  68 NW6       30.11S
$$

PAZ004>006-010>012-017>019-024>028-033>037-041-042-045-046-049>053-300000-
CENTRAL PENNSYLVANIA

CITY           SKY/WX    TMP DP  RH WIND       PRES   REMARKS
BRADFORD       CLOUDY    53  52  96 CALM      30.15S
DUBOIS         CLOUDY    61  57  87 N9        30.13R
CLEARFIELD     PTSUNNY   67  61  81 NW10      30.12R
JOHNSTOWN      SUNNY     73  60  63 W9G21     30.12R
ALTOONA        MOSUNNY   78  61  55 W12       30.08F
STATE COLLEGE  MOSUNNY   73  61  64 NW3       30.08R
WILLIAMSPORT   CLOUDY    69  58  67 N14G22    30.05S
SELINSGROVE    CLOUDY    76  62  62 VRB5      30.05R
FT INDIANTOWN  SUNNY     78  61  54 W5        30.03F
CAPITAL CITY   SUNNY     82  59  45 W7        30.03S
HARRISBURG     PTSUNNY   77  66  68 CALM      30.02S
YORK           MOSUNNY   80  66  62 N5        30.04S
$$

PAZ038>040-043-044-047-048-054-055-060>062-067>071-300000-
EASTERN PENNSYLVANIA

CITY           SKY/WX    TMP DP  RH WIND       PRES   REMARKS
SCRANTON       MOCLDY    68  57  68 N14G23    30.08R
MOUNT POCONO   MOCLDY    68  57  68 W17       30.08R
ALLENTOWN      PTCLDY    79  61  53 W9        30.02S
QUAKERTOWN*    PTCLDY    79  63  57 W5        30.04S
READING        CLEAR     80  60  50 W12       30.02S
LANCASTER      PTCLDY    80  66  62 NW7       30.03S
COATESVILLE    MOCLDY    79  63  57 W3        30.06S
POTTSTOWN      PTCLDY    80  59  48 VRB6      30.04S
BLUE BELL      MOCLDY    79  61  53 W5        30.03F
DOYLESTOWN     MOCLDY    79  63  57 VRB5      30.02S
WILLOW GROVE   NOT AVBL
NORTH PHILA    CLOUDY    82  62  50 W10       30.03S
PHILADELPHIA   MOCLDY    83  59  44 W5        30.02F
$$




USA.gov is the U.S. government's official web portal to all federal, state and local government web resources and services.